Date,TemperatureHighF,TemperatureAvgF,TemperatureLowF,DewpointHighF,DewpointAvgF,DewpointLowF,HumidityHigh,HumidityAvg,HumidityLow,PressureMaxIn,PressureMinIn,WindSpeedMaxMPH,WindSpeedAvgMPH,GustSpeedMaxMPH,PrecipitationSumIn
2014-1-1,46,37,30,33,25,11,99,66,31,30.43,30.30,7,1,0,0.00
2014-1-2,57,43,28,33,16,-9,100,51,7,30.35,30.04,29,5,0,0.00
2014-1-3,52,41,26,30,13,-14,73,37,7,30.33,30.01,23,5,0,0.00
2014-1-4,40,28,21,20,12,-12,89,55,10,30.50,30.33,10,2,0,0.00
2014-1-5,41,29,20,18,5,-20,84,44,7,30.58,30.45,6,1,0,0.00
2014-1-6,34,28,22,21,14,6,88,58,30,30.48,30.20,4,0,0,0.00
2014-1-7,46,38,30,36,21,0,100,55,18,30.21,30.07,13,3,0,0.04
2014-1-8,51,41,31,38,28,15,100,64,24,30.16,29.89,32,6,0,0.12
2014-1-9,48,40,34,32,21,12,89,48,28,30.15,29.92,30,9,0,0.00
2014-1-10,50,46,44,19,12,-11,33,25,8,30.16,29.94,23,9,0,0.00
2014-1-11,56,42,34,32,23,-5,88,50,8,30.05,29.68,25,10,0,0.35
2014-1-12,49,43,35,27,21,12,69,42,30,30.40,30.05,28,8,0,0.00
2014-1-13,47,43,33,25,18,8,69,37,20,30.67,30.40,23,6,0,0.00
2014-1-14,50,38,30,28,18,2,86,49,14,30.71,30.57,12,2,0,0.00
2014-1-15,53,36,28,24,14,-4,83,44,10,30.63,30.44,6,1,0,0.00
2014-1-16,49,36,26,24,12,-12,74,42,8,30.60,30.41,7,1,0,0.00
2014-1-17,49,35,24,29,16,-6,99,54,10,30.45,30.27,7,1,0,0.00
2014-1-18,38,29,23,32,26,21,100,90,53,30.42,30.25,7,2,0,0.00
2014-1-19,50,31,22,33,24,12,100,78,25,30.40,30.18,10,2,0,0.00
2014-1-20,28,26,25,28,26,22,100,98,81,30.53,30.40,10,2,0,0.00
2014-1-21,29,26,24,27,25,21,100,95,72,30.49,30.38,8,2,0,0.00
2014-1-22,41,29,23,32,25,17,100,87,43,30.47,30.31,10,2,0,0.00
2014-1-23,28,26,24,28,24,21,100,93,82,30.64,30.47,12,4,0,0.00
2014-1-24,32,26,22,24,20,13,98,81,49,30.67,30.52,12,2,0,0.00
2014-1-25,39,28,21,28,21,12,100,78,39,30.56,30.36,9,2,0,0.00
2014-1-26,33,26,20,31,23,17,100,90,57,30.36,30.20,12,2,0,1.00
2014-1-27,26,24,23,25,21,18,100,88,74,30.42,30.27,7,2,0,0.00
2014-1-28,34,29,25,32,24,16,100,81,50,30.42,30.10,5,1,0,0.24
2014-1-29,49,40,31,42,26,7,100,63,23,30.11,29.85,24,7,0,0.12
2014-1-30,44,38,34,18,10,-10,46,32,10,30.04,29.93,17,5,0,0.00
2014-1-31,46,37,30,23,12,-5,71,39,13,30.19,30.03,13,5,0,0.00
2014-2-1,44,33,24,26,17,-4,98,59,13,30.23,30.09,9,2,0,0.00
2014-2-2,32,29,26,28,24,18,99,82,60,30.12,29.98,6,2,0,0.00
2014-2-3,41,28,24,28,23,11,100,83,35,30.18,30.02,10,3,0,0.00
2014-2-4,25,20,14,21,14,7,91,77,60,30.41,30.18,15,7,0,0.00
2014-2-5,14,10,6,8,-5,-21,81,54,22,30.50,30.39,18,8,0,0.00
2014-2-6,11,6,3,2,-2,-8,81,69,44,30.39,29.91,11,4,0,0.00
2014-2-7,14,8,1,8,2,-4,86,77,55,30.04,29.87,16,3,0,0.00
2014-2-8,19,13,11,16,10,7,90,85,79,30.18,30.00,5,0,0,0.00
2014-2-9,26,17,12,22,14,9,98,86,69,30.23,30.12,0,0,0,0.00
2014-2-10,50,33,16,32,20,14,95,63,27,30.26,30.16,18,5,0,0.08
2014-2-11,51,43,38,35,23,13,85,48,24,30.19,29.92,22,7,0,0.12
2014-2-13,44,40,38,24,19,14,58,43,31,30.09,29.97,3,0,0,0.04
2014-2-14,47,41,35,40,33,23,100,73,40,30.09,29.87,15,6,0,0.67
2014-2-15,48,39,35,43,33,13,100,83,36,30.02,29.56,18,3,0,0.35
2014-2-16,47,40,32,27,12,-3,79,35,13,30.12,29.85,26,8,0,0.00
2014-2-17,49,41,36,31,21,9,79,46,25,30.10,29.84,28,10,0,0.00
2014-2-18,55,42,34,32,20,5,80,42,16,30.09,29.79,26,9,0,0.12
2014-2-19,43,36,30,26,10,-14,85,37,9,30.22,30.06,17,7,0,0.00
2014-2-20,50,42,37,24,16,6,53,36,18,30.22,30.17,18,8,0,0.00
2014-2-21,52,40,30,33,15,-11,94,45,8,30.26,30.17,11,3,0,0.00
2014-2-22,55,40,27,28,16,-10,97,47,8,30.20,30.07,12,2,0,0.00
2014-2-23,56,43,31,32,18,-10,80,41,7,30.10,29.96,22,6,0,1.00
2014-2-24,45,37,32,37,32,26,95,80,55,30.21,30.08,12,4,0,1.00
2014-2-25,32,29,27,30,27,23,100,92,74,30.31,30.21,14,6,0,1.00
2014-2-26,32,29,27,26,23,18,94,79,57,30.23,29.89,8,2,0,1.00
2014-2-27,38,33,30,36,29,24,100,84,71,29.89,29.81,7,1,0,1.00
2014-2-28,37,33,28,36,32,28,100,98,83,29.84,29.63,16,4,0,1.00
2014-3-1,35,32,27,34,24,14,100,74,47,29.94,29.65,12,4,0,0.04
2014-3-2,48,34,26,41,26,19,100,76,33,29.94,29.83,23,4,0,0.20
2014-3-3,56,47,41,35,26,18,67,46,25,30.05,29.87,20,8,0,0.04
2014-3-4,59,50,40,28,22,10,60,36,15,30.10,29.98,18,7,0,0.00
2014-3-5,62,51,44,44,32,24,80,49,25,29.98,29.64,26,6,0,0.35
2014-3-6,52,46,42,32,23,9,60,41,18,30.18,29.77,34,10,0,0.00
2014-3-7,58,47,37,30,18,-9,68,37,6,30.30,30.18,14,4,0,0.00
2014-3-8,64,49,33,36,23,-4,88,44,7,30.25,30.01,17,4,0,0.00
2014-3-9,60,53,46,43,31,20,78,46,22,30.07,30.01,14,6,0,0.12
2014-3-10,48,43,35,35,20,3,70,41,17,30.45,30.03,19,6,0,0.00
2014-3-11,44,33,27,27,17,-1,86,56,16,30.59,30.44,7,2,0,0.00
2014-3-25,57,47,40,26,16,-8,52,32,7,29.79,29.73,22,8,0,0.00
2014-3-26,53,42,36,32,22,5,81,48,15,29.76,29.61,16,5,0,0.00
2014-3-27,52,43,36,31,19,2,79,41,14,30.00,29.71,22,8,0,0.00
2014-3-28,53,45,39,39,30,18,82,56,36,30.01,29.85,14,3,0,0.16
2014-3-29,56,45,39,30,17,-5,63,36,9,29.98,29.86,28,8,0,0.00
2014-3-30,49,42,36,23,12,-12,53,32,8,30.05,29.96,18,8,0,0.00
2014-3-31,54,39,28,30,19,-8,99,55,8,30.05,29.73,11,3,0,0.00
2014-4-1,42,39,37,38,31,24,99,72,56,29.97,29.89,5,2,0,0.08
2014-4-2,57,43,29,37,17,-10,100,51,6,30.10,29.97,16,2,0,0.00
2014-4-3,56,45,34,29,13,-13,72,34,6,30.10,29.96,16,4,0,0.00
2014-4-4,54,46,39,26,12,-13,59,29,6,30.05,29.95,27,8,0,0.00
2014-4-5,58,47,39,27,22,10,55,38,18,30.16,30.05,19,7,0,0.00
2014-4-6,62,53,46,30,19,-2,51,30,8,30.34,30.16,21,8,0,0.00
2014-4-7,75,55,36,37,16,-8,93,34,4,30.36,30.15,12,3,0,0.00
2014-4-8,75,57,41,32,16,-5,68,28,5,30.21,30.07,22,5,0,0.00
2014-4-9,63,52,42,36,16,-13,67,30,6,30.20,30.13,12,5,0,0.00
2014-4-10,67,49,32,28,8,-12,79,26,5,30.23,30.09,16,3,0,0.00
2014-4-11,70,53,36,24,5,-12,59,21,5,30.16,29.97,20,4,0,0.00
2014-4-12,62,49,34,28,8,-11,75,26,6,30.17,29.99,19,5,0,0.00
2014-4-13,60,48,35,28,8,-13,72,26,6,30.32,30.17,20,4,0,1.00
2014-4-14,74,52,31,25,6,-12,56,21,5,30.29,30.08,23,4,0,0.00
2014-4-15,58,48,38,23,8,-12,51,22,6,30.20,30.12,19,4,0,0.00
2014-4-16,63,50,37,29,15,-8,68,30,6,30.17,30.02,12,3,0,0.00
2014-4-17,53,49,45,42,28,16,78,45,26,30.05,29.91,15,4,0,0.04
2014-4-18,60,47,36,21,6,-15,52,22,6,30.17,30.00,12,4,0,0.00
2014-4-19,66,46,34,24,15,-10,62,33,5,30.24,29.92,25,6,0,0.00
2014-4-20,68,52,36,27,9,-10,65,22,5,30.33,30.16,13,5,0,0.00
2014-4-21,65,51,42,42,23,-6,92,40,6,30.17,29.86,20,3,0,0.20
2014-4-22,52,44,40,40,14,-12,92,35,8,30.03,29.87,26,7,0,0.00
2014-4-23,55,47,37,37,20,6,69,36,15,30.03,29.87,16,6,0,0.00
2014-4-24,58,49,43,35,21,-1,68,35,10,29.95,29.86,24,6,0,0.08
2014-4-25,52,42,34,30,20,-3,68,43,11,29.94,29.82,19,4,0,0.00
2014-4-26,52,41,29,37,14,-15,100,46,6,29.94,29.81,18,5,0,0.00
2014-4-27,49,41,35,34,22,7,80,48,21,30.18,29.81,20,7,0,0.00
2014-4-28,61,47,32,33,9,-13,94,29,6,30.40,30.18,14,4,0,0.00
2014-4-29,69,53,35,28,7,-11,69,24,5,30.55,30.40,15,4,0,0.00
2014-4-30,75,59,39,25,3,-11,53,15,4,30.51,30.22,17,4,0,0.00
2014-5-1,82,64,43,28,10,-10,52,17,4,30.28,30.07,13,3,0,0.00
2014-5-2,77,63,48,33,16,-6,51,21,4,30.17,29.92,26,4,0,0.00
2014-5-3,62,54,48,31,17,-2,45,26,8,29.99,29.85,29,10,0,0.00
2014-5-4,60,51,44,29,19,-8,48,31,6,30.00,29.87,27,8,0,0.00
2014-5-5,58,48,41,26,17,-12,53,32,6,30.09,29.99,22,7,0,0.00
2014-5-6,63,47,33,34,16,-11,95,40,6,30.12,29.99,26,6,0,0.00
2014-5-7,65,50,32,34,14,-11,98,36,6,30.10,29.90,11,3,0,0.00
2014-5-8,63,53,47,33,24,12,51,34,15,29.96,29.79,18,6,0,0.00
2014-5-9,58,48,38,30,18,-5,69,32,9,30.10,29.88,28,8,0,0.00
2014-5-10,55,45,38,29,17,-5,68,36,9,30.26,30.09,26,9,0,0.00
2014-5-11,64,50,33,34,12,-10,96,34,5,30.34,30.21,14,3,0,0.00
2014-5-12,70,54,37,32,8,-10,77,25,5,30.41,30.29,14,3,0,0.00
2014-5-13,78,60,41,22,4,-13,45,14,4,30.43,30.29,15,3,0,0.00
2014-5-14,83,66,46,24,8,-11,40,14,4,30.40,30.17,12,3,0,0.00
2014-5-15,90,70,51,29,11,-5,42,14,4,30.21,30.02,22,4,0,0.00
2014-5-16,75,64,51,25,4,-10,35,10,4,30.12,30.03,33,7,0,0.00
2014-5-17,72,57,44,33,15,-9,57,25,5,30.12,29.89,22,6,0,0.00
2014-5-18,61,52,45,39,23,4,78,34,12,30.00,29.90,21,7,0,0.16
2014-5-19,65,54,46,32,18,-3,53,28,7,30.08,29.97,21,7,0,0.00
2014-5-20,74,56,40,37,18,-9,82,33,4,30.15,30.03,21,4,0,0.00
2014-5-21,77,62,43,38,12,-7,76,23,4,30.17,30.03,23,5,0,1.00
2014-5-22,83,66,48,31,15,-5,51,19,4,30.16,29.99,20,4,0,1.00
2014-5-23,72,62,56,45,32,17,59,34,13,30.17,30.06,23,4,0,0.00
2014-5-24,76,60,45,47,21,-8,99,35,4,30.18,30.06,17,4,0,0.00
2014-5-25,77,60,45,39,20,-9,75,29,4,30.16,29.98,23,5,0,0.00
2014-5-26,69,58,50,33,14,-7,43,21,5,30.17,30.08,24,10,0,0.00
2014-5-27,68,53,42,34,15,-10,67,29,5,30.17,30.06,20,6,0,0.00
2014-5-28,59,50,41,31,15,-8,65,29,7,30.23,30.14,28,6,0,0.00
2014-5-29,69,54,37,33,10,-10,82,27,5,30.27,30.09,12,4,0,0.00
2014-5-30,80,61,42,35,14,-11,71,24,4,30.15,29.90,30,4,0,0.00
2014-5-31,81,63,48,40,16,-10,71,24,4,30.10,29.99,18,4,0,0.00
2014-6-1,81,63,45,37,14,-8,67,23,4,30.14,29.92,21,4,0,0.00
2014-6-2,86,65,47,37,14,-8,61,21,4,30.01,29.82,23,4,0,0.00
2014-6-3,80,63,47,39,13,-8,70,21,4,30.10,29.94,20,4,0,0.00
2014-6-4,83,62,41,24,8,-8,47,16,4,30.16,30.00,19,4,0,0.00
2014-6-5,79,63,45,28,7,-10,49,15,4,30.16,29.99,23,5,0,0.00
2014-6-6,79,63,44,29,6,-10,53,15,5,30.15,30.02,21,4,0,0.00
2014-6-7,78,64,46,26,8,-7,41,15,4,30.18,30.07,23,6,0,0.00
2014-6-8,85,66,47,33,14,-8,55,20,4,30.21,30.05,21,4,0,0.00
2014-6-9,80,65,49,37,13,-7,61,20,4,30.16,29.99,27,6,0,0.00
2014-6-10,76,61,44,32,10,-8,56,19,4,30.11,30.01,24,7,0,0.00
2014-6-11,80,63,42,31,11,-10,57,20,4,30.12,29.85,17,4,0,0.00
2014-6-12,70,59,50,36,18,-8,53,24,5,29.99,29.84,33,8,0,0.00
2014-6-13,66,54,49,30,22,10,47,30,14,30.16,29.98,26,9,0,0.00
2014-6-14,68,52,40,34,16,-11,78,31,5,30.17,30.02,19,5,0,0.00
2014-6-15,65,53,44,32,19,2,60,30,9,30.04,29.87,17,5,0,0.00
2014-6-16,59,50,42,26,14,-8,46,26,7,30.06,29.91,23,6,0,0.00
2014-6-17,63,49,36,35,21,0,92,40,9,30.16,30.05,25,5,0,0.00
2014-6-18,83,59,39,40,18,-8,97,32,4,30.16,29.98,17,4,0,0.00
2014-6-19,82,64,45,39,17,-7,76,25,4,30.12,29.96,21,6,0,0.00
2014-6-20,74,63,53,33,16,-7,41,20,5,30.15,30.05,19,7,0,0.00
2014-6-21,75,60,41,36,12,-10,78,24,4,30.17,29.99,13,4,0,0.00
2014-6-22,84,66,47,31,11,-10,51,17,4,30.15,29.98,14,3,0,0.00
2014-6-23,86,68,54,25,14,-7,32,14,4,30.12,29.95,21,4,0,0.00
2014-6-24,76,64,52,49,28,1,83,34,6,30.16,30.05,16,4,0,0.00
2014-6-25,70,59,50,57,39,15,98,52,12,30.10,29.91,9,2,0,1.00
2014-6-26,73,61,54,56,38,13,100,51,11,29.94,29.87,20,6,0,1.00
2014-6-27,74,62,54,48,31,10,78,34,11,30.01,29.88,21,7,0,1.00
2014-6-28,72,62,53,33,19,-2,45,23,6,30.12,30.01,24,8,0,1.00
2014-6-29,75,61,49,36,18,-8,56,22,5,30.20,30.11,17,6,0,1.00
2014-6-30,85,65,45,39,16,-5,72,25,4,30.25,30.06,16,4,0,1.00
2014-7-1,95,75,54,28,11,-4,35,11,4,30.12,29.84,19,4,0,0.00
2014-7-2,87,75,66,37,21,2,33,15,5,30.02,29.89,16,4,0,1.00
2014-7-3,88,70,56,51,24,-2,81,27,4,30.10,29.96,14,4,0,1.00
2014-7-4,91,69,52,38,16,-6,56,21,4,30.09,29.95,24,5,0,1.00
2014-7-5,92,75,58,34,13,-6,39,12,4,30.17,30.04,16,4,0,1.00
2014-7-6,93,74,56,32,15,-4,37,14,4,30.20,30.08,24,4,0,0.00
2014-7-7,93,77,57,39,19,-2,46,16,4,30.18,29.98,14,3,0,0.00
2014-7-8,100,81,62,42,22,2,43,16,4,30.10,29.92,20,3,0,0.00
2014-7-9,96,80,64,43,16,-5,43,12,4,30.05,29.87,18,4,0,0.00
2014-7-10,96,76,56,38,13,-3,47,13,4,30.01,29.84,18,4,0,0.00
2014-7-11,95,76,56,26,11,-5,29,10,4,30.10,29.96,17,3,0,0.00
2014-7-12,100,80,59,30,15,-1,31,11,4,30.17,30.04,22,4,0,0.00
2014-7-13,92,78,66,34,13,-2,28,10,4,30.16,30.04,27,6,0,0.00
2014-7-14,96,77,59,40,17,-4,47,16,4,30.16,30.04,26,6,0,0.00
2014-7-15,98,80,59,27,12,-3,28,9,4,30.18,29.99,15,3,0,0.00
2014-7-16,98,82,65,30,14,-2,25,10,4,30.10,29.93,16,4,0,0.00
2014-7-17,92,74,59,25,9,-7,26,10,4,30.08,29.95,19,4,0,0.00
2014-7-18,90,71,52,24,10,-5,32,12,4,30.13,30.01,26,7,0,0.00
2014-7-19,91,75,58,38,16,-2,43,15,4,30.15,30.00,23,5,0,0.00
2014-7-20,81,72,61,36,21,-4,31,16,4,30.01,29.88,23,9,0,0.00
2014-7-21,79,73,67,27,11,-6,21,10,4,30.08,29.99,14,4,0,0.00
2014-7-22,82,68,61,49,33,12,64,31,8,30.15,30.02,15,2,0,0.28
2014-7-23,68,59,52,56,37,14,94,48,18,30.19,30.06,24,6,0,0.04
2014-7-24,75,59,50,33,19,-6,41,24,5,30.26,30.17,20,7,0,0.00
2014-7-25,83,64,45,46,22,-7,98,34,4,30.19,30.03,16,4,0,1.00
2014-7-26,91,71,52,41,19,-4,66,22,4,30.18,30.06,17,4,0,1.00
2014-7-27,87,75,57,36,15,-4,39,15,4,30.18,30.08,12,3,0,1.00
2014-7-28,100,80,59,30,15,-2,31,10,4,30.17,30.02,17,4,0,1.00
2014-7-29,95,79,62,35,17,-1,33,13,4,30.17,30.06,12,2,0,0.00
2014-7-30,100,80,60,37,17,-2,40,13,4,30.17,30.00,20,3,0,1.00
2014-7-31,99,81,65,29,14,-1,25,10,4,30.15,29.97,24,3,0,0.00
2014-8-1,97,82,69,34,14,1,27,9,4,30.11,29.94,16,3,0,0.00
2014-8-2,95,78,65,39,22,1,34,16,4,30.06,29.93,23,3,0,0.00
2014-8-3,91,77,63,49,23,0,61,21,4,30.12,29.95,16,3,0,0.00
2014-8-4,96,79,64,30,15,-1,28,11,3,30.05,29.90,22,5,0,0.00
2014-8-5,92,76,64,38,15,-4,37,13,4,30.11,29.98,18,4,0,0.00
2014-8-6,89,71,53,33,12,-5,35,14,4,30.18,30.01,16,4,0,0.00
2014-8-7,89,71,53,41,17,-6,59,21,4,30.16,29.98,16,3,0,0.00
2014-8-8,84,69,53,28,8,-7,36,12,4,30.14,30.01,21,4,0,0.00
2014-8-9,89,71,50,32,12,-7,48,15,4,30.17,30.03,12,3,0,0.00
2014-8-10,95,78,59,25,7,-6,15,7,3,30.17,29.99,22,4,0,0.00
2014-8-11,99,81,68,36,18,1,29,11,4,30.13,29.92,15,4,0,0.00
2014-8-12,82,69,60,55,34,5,81,35,6,30.06,29.92,17,4,0,0.24
2014-8-13,77,63,56,56,43,14,91,55,10,30.09,29.97,19,3,0,0.04
2014-8-14,74,62,54,55,40,12,98,52,10,30.10,30.02,16,2,0,0.00
2014-8-15,80,67,56,56,34,7,95,40,7,30.13,30.04,12,3,0,0.00
2014-8-16,88,71,54,50,28,-2,81,32,4,30.18,30.04,15,3,0,0.00
2014-8-17,90,73,57,48,22,0,69,24,4,30.17,30.00,22,4,0,0.00
2014-8-18,92,76,58,40,20,-2,46,17,4,30.09,29.86,14,3,0,0.00
2014-8-19,87,73,63,42,25,-1,46,21,4,29.93,29.81,24,5,0,0.00
2014-8-20,81,67,56,48,22,-7,69,26,4,30.05,29.91,18,5,0,0.00
2014-8-21,82,63,45,32,14,-7,56,21,4,30.12,29.96,19,4,0,0.00
2014-8-22,77,64,49,33,16,-7,50,21,4,30.16,30.02,23,5,0,0.00
2014-8-23,80,65,51,37,18,-5,55,22,4,30.20,30.08,13,2,0,0.00
2014-8-24,82,64,51,38,20,-6,46,23,4,30.11,29.90,19,3,0,0.00
2014-8-25,81,65,49,45,20,-4,78,29,4,30.12,30.02,13,3,0,0.00
2014-8-26,86,70,52,35,14,-5,50,17,4,30.17,30.03,13,2,0,0.00
2014-8-27,94,74,56,36,17,-2,46,15,4,30.16,30.01,22,4,0,0.00
2014-8-28,88,72,57,42,22,-4,56,21,4,30.16,30.02,18,4,0,0.00
2014-8-29,83,67,51,41,21,-4,66,25,4,30.09,29.93,23,4,0,0.00
2014-8-30,68,62,56,38,28,3,46,29,8,30.06,29.99,23,5,0,0.00
2014-8-31,73,60,52,38,20,-6,59,27,5,30.14,30.04,12,4,0,0.00
2014-9-1,80,63,46,38,19,-7,72,27,4,30.17,29.99,18,3,0,0.00
2014-9-2,82,63,48,46,22,-4,82,30,4,30.04,29.87,24,5,0,0.00
2014-9-3,75,58,44,32,10,-8,58,21,5,30.14,30.00,23,4,0,0.00
2014-9-4,76,59,43,34,11,-8,67,22,4,30.18,30.06,18,4,0,0.00
2014-9-5,81,65,48,31,7,-9,50,14,4,30.20,30.09,20,5,0,1.00
2014-9-6,85,67,49,24,3,-9,34,9,5,30.18,29.95,19,3,0,0.00
2014-9-7,87,69,50,16,3,-9,24,8,5,30.03,29.87,12,2,0,0.00
2014-9-8,87,66,49,31,6,-8,34,11,5,30.00,29.84,21,4,0,0.00
2014-9-9,75,61,49,40,20,-4,67,27,5,30.17,29.99,18,4,0,0.00
2014-9-10,75,59,43,34,14,-10,66,25,5,30.24,30.12,18,4,0,0.00
2014-9-11,65,55,46,12,-3,-13,24,9,5,30.37,30.19,18,8,0,0.00
2014-9-12,76,57,39,22,2,-13,45,15,5,30.21,29.99,13,4,0,1.00
2014-9-13,77,60,42,14,-2,-11,29,9,5,30.14,29.94,13,2,0,0.00
2014-9-14,82,63,43,12,0,-13,25,9,5,30.08,29.94,16,3,0,0.00
2014-9-15,84,66,49,17,2,-7,26,9,5,30.08,29.90,12,2,0,0.00
2014-9-16,89,70,53,20,5,-8,27,9,4,29.99,29.84,14,2,0,0.00
2014-9-17,85,70,59,20,7,-6,21,10,4,29.94,29.70,15,3,0,0.00
2014-9-18,73,65,58,34,24,2,37,21,9,30.07,29.80,19,4,0,0.00
2014-9-19,81,66,50,46,24,-4,81,31,4,30.17,30.05,14,2,0,0.00
2014-9-20,85,68,50,44,20,-4,73,25,4,30.18,30.00,18,4,0,0.00
2014-9-21,87,71,54,34,18,-4,44,18,4,30.08,29.91,15,2,0,0.00
2014-9-22,84,72,61,38,16,-2,40,15,4,30.05,29.93,23,4,0,0.00
2014-9-23,81,68,58,31,16,1,33,15,5,30.01,29.84,11,2,0,0.00
2014-9-24,66,60,53,52,40,25,89,52,21,30.01,29.85,12,3,0,0.20
2014-9-25,69,57,51,50,32,-1,85,47,7,30.03,29.92,12,3,0,0.12
2014-9-26,70,58,48,40,21,-8,71,30,5,30.13,30.03,20,6,0,1.00
2014-9-27,69,57,45,38,26,1,73,37,7,30.16,30.04,20,4,0,0.00
2014-9-28,71,60,49,40,24,3,62,28,7,30.09,29.97,11,2,0,0.00
2014-9-29,72,58,46,48,26,-6,99,38,5,30.07,29.93,23,5,0,0.00
2014-9-30,64,54,44,35,18,-5,67,28,7,30.19,30.07,27,6,0,0.00
2014-10-1,67,52,37,38,19,-9,97,39,5,30.27,30.15,8,1,0,0.00